Wind_Speed
11 12 12 13 14 13 14 13 12 12 12 10 9 8 7 7 5 4 3 3 2 1 2 2 3 4 4 5 6 6 6 6 7 7 7 7 7 7 8 8 8 9 9
11 11 11 12 12 12 13 13 12 12 11 10 9 8 8 7 6 5 4 3 3 2 2 2 3 3 4 5 6 6 7 7 7 7 8 8 9 9 10 10 10 10 11
11 10 11 12 12 11 12 12 12 12 11 10 10 9 8 7 6 5 4 4 4 3 3 3 3 3 5 6 7 7 8 8 8 8 8 9 10 11 11 11 11 12 12
10 9 10 11 11 10 11 11 12 11 11 10 10 9 8 7 6 5 5 5 4 4 4 4 3 3 4 6 7 8 9 9 9 9 9 10 10 11 11 12 12 13 14
11 9 9 9 9 10 10 11 11 11 11 11 10 9 8 7 7 6 6 6 5 4 4 4 4 4 5 6 8 9 9 10 10 10 10 11 11 11 11 12 13 14 14
11 10 9 9 10 10 10 11 11 10 10 10 9 9 8 7 7 7 7 7 6 6 5 5 5 5 6 6 7 8 9 9 10 11 11 12 12 12 13 13 14 15 15
11 10 10 10 11 10 11 11 11 11 11 10 10 9 9 8 8 8 7 7 7 6 6 6 6 6 7 8 8 9 9 10 10 11 11 11 12 13 14 14 15 15 16
11 11 11 11 11 11 11 11 11 13 12 11 11 10 9 9 8 8 8 8 7 7 7 7 8 8 8 8 9 9 10 10 11 12 12 13 14 14 15 15 16 16 17
12 12 12 11 12 12 12 11 12 12 12 12 11 11 10 9 9 9 8 8 8 8 7 8 8 9 9 9 9 9 10 10 12 14 15 16 16 16 16 16 16 17 17
13 13 12 12 13 13 13 12 12 12 12 12 12 12 11 10 10 10 9 9 9 9 9 9 9 10 10 10 11 11 12 13 13 14 16 17 18 18 18 17 17 17 17
14 14 14 15 15 15 15 14 13 12 13 13 13 12 11 10 10 10 10 10 10 10 10 11 11 11 12 13 14 14 14 15 15 16 16 17 18 18 18 19 19 19 19
15 15 16 17 17 16 16 16 15 15 15 14 13 12 11 11 10 11 11 11 11 11 12 12 13 12 13 14 15 16 16 17 17 18 18 18 18 19 20 20 20 21 21
17 17 17 17 17 17 16 16 16 15 14 14 14 13 12 12 12 12 12 12 12 12 13 13 14 15 15 16 16 17 18 18 19 19 19 20 21 21 22 22 22 22 23
19 19 18 18 18 18 17 17 17 17 17 16 16 15 14 13 13 13 14 14 14 15 15 15 16 17 18 18 18 18 19 20 20 21 21 22 22 23 23 24 24 24 24
21 20 20 20 20 20 19 19 18 18 18 18 18 17 16 16 15 15 15 16 16 17 17 17 18 18 18 19 19 20 20 21 21 22 22 23 24 24 24 25 25 24 25
22 22 22 22 22 22 21 21 19 19 18 19 19 19 18 18 18 17 18 18 18 18 18 19 19 19 19 20 20 21 22 22 22 23 23 23 24 24 24 24 25 26 25
23 23 23 23 23 23 23 22 20 20 20 20 20 20 19 20 20 20 20 20 20 19 20 20 20 21 21 21 21 22 23 22 23 24 24 24 25 24 24 25 25 25 25
24 25 25 24 24 25 24 24 22 22 22 22 22 22 21 21 22 22 22 23 23 22 21 21 21 22 22 23 23 24 24 24 24 24 25 26 26 25 26 26 26 26 26
26 27 27 27 26 26 26 26 25 25 24 24 24 25 25 24 25 24 23 24 24 23 23 23 24 23 24 24 24 24 24 25 25 25 26 27 27 27 27 27 27 27 27
29 29 30 29 29 29 29 28 28 28 28 28 28 26 26 27 26 25 25 25 25 26 25 25 25 25 25 25 25 25 25 26 26 27 27 28 28 28 28 28 28 28 27
31 31 31 31 30 30 30 30 30 30 30 30 30 29 28 28 28 28 28 28 27 27 27 27 27 26 27 27 27 27 27 27 27 28 28 28 28 28 28 28 28 28 27
33 32 32 32 32 32 31 31 31 31 31 31 31 30 30 31 31 31 30 29 29 29 28 29 29 28 28 28 28 27 28 29 29 29 28 28 28 28 28 29 28 28 28
34 33 33 34 33 34 34 33 33 33 34 33 33 33 33 32 32 32 31 30 30 30 31 31 30 30 29 29 29 29 29 30 29 29 28 29 29 29 29 28 27 28 28
35 35 35 35 35 35 35 36 35 35 36 35 36 34 34 33 32 33 32 31 31 31 31 31 31 30 30 30 30 30 30 29 29 29 29 30 30 30 29 29 29 29 30
36 36 37 37 37 36 37 37 37 38 37 37 37 36 36 35 35 34 33 33 33 33 33 33 32 31 31 31 31 31 31 31 31 30 30 30 30 31 31 31 31 31 32
35 36 36 37 37 37 37 38 38 38 38 38 37 37 37 36 36 36 35 35 35 35 34 34 33 33 33 33 32 32 32 32 32 32 31 31 31 31 32 32 32 32 32
Wind_Direction
9 12 14 16 17 18 20 22 22 25 25 23 19 19 20 18 14 9 6 355 338 314 275 259 231 229 227 225 227 235 239 243 246 251 257 261 265 269 269 272 274 275 275
358 1 4 7 9 11 13 14 15 17 18 16 12 11 12 10 5 358 353 344 332 307 287 275 261 248 245 245 244 247 249 252 252 253 257 264 266 268 270 271 274 274 276
345 348 352 357 359 1 3 7 8 8 7 7 7 4 4 6 3 358 352 343 330 314 293 280 276 267 258 254 252 256 255 256 259 259 263 266 269 268 272 273 274 274 275
338 339 343 349 352 353 354 357 0 360 358 358 357 356 356 358 358 356 352 345 333 315 308 294 279 287 280 265 257 260 261 258 260 264 267 269 271 270 272 274 276 276 275
330 329 332 340 344 344 346 347 349 352 353 352 350 349 348 348 346 343 337 332 325 315 306 298 291 283 286 282 272 268 265 264 264 266 271 274 274 273 273 276 277 278 279
319 320 322 327 331 334 337 339 341 344 346 348 346 344 341 339 337 336 334 327 316 308 304 298 294 290 289 289 283 278 274 274 271 268 271 275 276 276 276 279 281 280 281
307 308 310 315 321 326 332 334 336 339 337 341 342 338 335 331 326 325 327 326 316 304 297 291 290 292 294 293 294 293 286 281 280 275 275 276 278 279 281 282 282 283 282
295 297 301 307 312 316 322 327 331 331 331 330 333 334 332 329 325 321 321 322 320 312 298 288 284 287 291 295 298 300 297 289 283 279 280 280 281 282 284 284 283 280 280
288 291 294 301 305 306 311 315 321 324 323 325 329 332 329 325 322 319 316 316 316 312 307 297 286 288 291 297 302 303 302 299 293 285 283 282 281 281 284 285 284 283 282
282 286 289 293 298 300 302 306 309 315 321 323 324 324 322 317 316 314 312 310 310 313 310 304 298 292 293 296 299 300 300 300 297 294 290 287 284 282 284 285 285 285 284
274 278 282 288 293 296 300 300 302 309 314 315 319 320 316 314 314 310 308 306 306 307 308 305 302 296 293 294 296 297 298 298 297 296 296 293 289 286 284 285 285 284 284
270 275 279 284 288 290 290 291 295 299 304 308 312 315 312 310 310 309 305 304 304 302 302 302 303 303 300 300 301 300 298 299 298 296 295 296 294 291 288 287 286 285 284
270 274 276 280 282 284 285 287 288 290 294 302 305 305 304 304 305 304 304 303 303 303 302 302 301 298 298 300 303 304 303 302 301 299 297 295 294 292 289 288 287 285 284
268 271 274 276 278 280 283 287 286 285 287 294 297 297 297 299 302 301 301 301 301 301 300 301 299 298 296 296 299 303 303 303 302 300 298 297 295 293 290 289 287 286 284
264 268 271 272 275 277 280 284 284 284 284 287 290 291 291 294 297 297 296 295 295 295 296 298 300 301 300 298 299 300 301 301 300 300 299 299 297 295 293 291 288 286 286
263 266 268 269 271 274 276 277 278 280 281 283 285 285 285 287 291 293 294 292 293 293 294 295 297 298 300 301 300 299 298 297 297 298 298 298 297 295 295 293 291 288 287
261 262 264 266 267 269 272 272 274 278 281 283 284 288 284 285 288 289 290 288 290 290 291 293 295 296 298 299 299 297 297 296 295 296 295 297 297 294 294 294 292 289 288
259 259 261 265 266 267 270 272 272 275 279 281 281 283 283 283 284 285 285 286 286 287 288 290 293 295 297 299 298 297 296 296 296 296 296 296 295 294 293 293 290 288 287
259 258 259 262 265 265 266 268 270 274 277 280 283 283 281 281 283 284 283 285 287 288 289 289 290 292 294 297 296 298 297 296 297 297 296 295 295 294 295 293 290 290 289
261 260 260 261 262 264 266 266 269 271 274 277 278 279 280 281 282 286 286 285 286 287 288 289 288 289 291 293 295 296 297 295 296 296 295 295 294 294 294 293 290 290 290
260 260 261 261 262 263 265 266 268 270 273 274 274 274 278 280 282 284 285 284 284 285 286 286 287 288 289 291 293 294 297 296 296 297 296 295 294 294 294 294 291 290 290
259 260 261 261 262 263 264 265 267 268 270 273 274 276 277 278 279 281 282 281 282 282 285 285 285 285 287 289 292 295 296 296 295 296 296 295 295 295 296 295 293 290 291
260 260 260 261 261 262 263 265 266 266 267 271 273 275 276 277 276 278 279 279 280 281 284 285 283 283 284 287 290 292 294 295 294 294 294 295 296 296 295 295 293 292 292
260 259 260 261 261 262 263 263 265 268 268 269 271 272 275 275 276 277 277 278 280 281 285 285 284 285 285 286 288 290 291 292 293 293 293 293 293 294 293 292 291 291 291
259 259 259 261 262 262 263 264 264 266 269 269 270 270 272 273 275 274 274 276 277 280 281 283 283 284 284 284 286 288 289 290 291 291 292 293 293 293 292 290 290 290 290
259 259 259 260 261 262 262 263 264 265 266 267 270 270 271 270 271 272 273 276 278 279 280 281 281 281 282 283 284 286 288 288 288 288 289 291 292 293 292 291 290 290 291
Height
5926 5924 5922 5920 5918 5916 5914 5912 5911 5909 5907 5905 5904 5902 5901 5900 5899 5898 5898 5897 5896 5896 5896 5896 5896 5896 5896 5896 5897 5897 5897 5898 5898 5898 5898 5898 5898 5898 5898 5898 5898 5897 5897
5927 5925 5923 5921 5919 5917 5916 5914 5912 5910 5908 5906 5904 5903 5901 5900 5899 5898 5897 5897 5896 5895 5895 5895 5895 5895 5895 5895 5896 5896 5896 5896 5897 5897 5897 5897 5897 5896 5896 5896 5896 5895 5895
5927 5925 5923 5922 5920 5918 5916 5915 5913 5911 5909 5907 5905 5903 5902 5900 5899 5898 5897 5896 5896 5895 5894 5894 5894 5894 5894 5894 5894 5894 5895 5895 5895 5895 5895 5895 5894 5894 5894 5893 5893 5893 5892
5926 5925 5923 5922 5920 5918 5917 5915 5913 5911 5909 5907 5905 5903 5902 5900 5899 5898 5897 5896 5895 5894 5894 5893 5893 5892 5892 5892 5892 5892 5892 5892 5892 5892 5892 5892 5892 5891 5891 5890 5890 5889 5889
5926 5924 5923 5921 5920 5918 5917 5915 5913 5911 5909 5907 5905 5903 5901 5900 5899 5898 5897 5895 5894 5893 5893 5892 5892 5891 5891 5890 5890 5890 5890 5889 5889 5889 5889 5889 5889 5888 5888 5887 5887 5886 5886
5925 5923 5922 5921 5919 5918 5916 5914 5912 5910 5908 5906 5905 5903 5901 5900 5898 5897 5896 5894 5893 5892 5891 5891 5890 5890 5889 5889 5888 5888 5888 5887 5887 5887 5887 5886 5886 5885 5885 5884 5883 5883 5882
5923 5922 5921 5919 5918 5916 5915 5913 5911 5909 5907 5906 5904 5902 5900 5899 5897 5896 5894 5893 5892 5891 5890 5889 5889 5889 5888 5887 5887 5886 5885 5885 5884 5884 5883 5883 5882 5882 5881 5880 5880 5879 5878
5921 5920 5919 5917 5916 5915 5913 5912 5910 5908 5906 5904 5903 5901 5899 5897 5896 5895 5893 5892 5891 5889 5888 5888 5887 5887 5886 5886 5885 5884 5883 5882 5882 5881 5880 5880 5879 5878 5877 5877 5876 5875 5874
5918 5917 5916 5915 5914 5913 5911 5910 5908 5906 5904 5903 5901 5899 5897 5896 5894 5893 5892 5890 5889 5888 5887 5886 5885 5885 5884 5884 5883 5882 5880 5879 5879 5878 5877 5876 5875 5874 5873 5872 5871 5871 5870
5915 5914 5913 5913 5912 5910 5909 5907 5906 5904 5902 5901 5899 5897 5896 5894 5893 5891 5890 5889 5887 5886 5885 5884 5883 5882 5882 5881 5880 5879 5878 5876 5875 5874 5873 5872 5870 5870 5869 5868 5867 5866 5865
5912 5911 5910 5910 5909 5907 5906 5904 5902 5901 5900 5898 5896 5895 5893 5892 5891 5889 5888 5887 5886 5884 5883 5882 5881 5880 5879 5878 5877 5876 5874 5873 5872 5871 5869 5868 5866 5865 5864 5863 5862 5861 5860
5908 5907 5907 5906 5905 5904 5902 5901 5900 5898 5897 5895 5894 5892 5891 5890 5888 5887 5885 5884 5883 5882 5881 5880 5878 5878 5876 5875 5874 5872 5871 5870 5868 5867 5865 5863 5862 5860 5859 5858 5857 5856 5855
5904 5903 5903 5902 5901 5900 5899 5897 5896 5895 5893 5892 5891 5889 5888 5887 5886 5884 5883 5882 5881 5879 5878 5877 5875 5874 5873 5872 5870 5869 5867 5866 5864 5862 5860 5859 5857 5856 5854 5853 5851 5850 5848
5899 5899 5898 5898 5897 5896 5895 5893 5892 5891 5890 5888 5887 5886 5885 5883 5882 5881 5880 5879 5877 5876 5875 5873 5872 5870 5869 5868 5866 5864 5863 5861 5860 5858 5856 5854 5852 5850 5848 5846 5845 5843 5842
5893 5893 5893 5893 5892 5891 5890 5889 5888 5887 5886 5884 5883 5882 5881 5880 5879 5878 5876 5875 5874 5872 5871 5870 5868 5866 5865 5863 5861 5860 5858 5856 5855 5852 5850 5848 5846 5844 5842 5840 5838 5837 5835
5887 5887 5887 5887 5887 5886 5885 5884 5883 5882 5881 5880 5879 5877 5876 5875 5874 5873 5872 5871 5869 5868 5866 5865 5864 5862 5860 5859 5857 5855 5853 5851 5849 5847 5845 5842 5840 5838 5836 5833 5831 5830 5828
5881 5881 5881 5881 5881 5880 5879 5878 5877 5877 5876 5875 5874 5872 5871 5870 5869 5868 5867 5865 5864 5862 5861 5860 5858 5857 5855 5853 5851 5849 5847 5845 5843 5841 5838 5836 5834 5831 5829 5827 5825 5823 5821
5874 5874 5874 5874 5874 5874 5873 5873 5872 5872 5871 5870 5869 5868 5866 5865 5864 5862 5861 5860 5858 5857 5855 5854 5852 5851 5849 5847 5846 5843 5841 5839 5837 5834 5832 5829 5827 5824 5822 5820 5818 5816 5814
5866 5867 5867 5867 5867 5867 5867 5866 5866 5866 5865 5864 5863 5861 5860 5859 5857 5856 5854 5853 5852 5851 5850 5848 5846 5845 5843 5841 5839 5837 5835 5833 5831 5828 5826 5823 5820 5818 5815 5813 5811 5808 5806
5858 5858 5859 5859 5859 5859 5859 5859 5859 5859 5858 5857 5855 5854 5853 5852 5850 5849 5849 5847 5846 5845 5843 5842 5840 5838 5837 5835 5832 5830 5829 5826 5824 5821 5819 5816 5813 5810 5808 5805 5803 5801 5799
5849 5850 5850 5850 5851 5851 5851 5851 5851 5851 5851 5849 5848 5847 5846 5845 5844 5843 5842 5840 5839 5838 5837 5835 5833 5832 5830 5828 5826 5824 5822 5819 5817 5814 5811 5809 5806 5803 5800 5798 5796 5794 5792
5840 5840 5841 5841 5841 5842 5842 5842 5843 5843 5842 5841 5840 5839 5839 5838 5837 5836 5834 5833 5831 5830 5829 5827 5826 5824 5822 5821 5819 5817 5814 5812 5809 5807 5804 5801 5799 5796 5793 5791 5788 5787 5784
5830 5831 5831 5832 5832 5832 5833 5833 5833 5833 5832 5832 5832 5831 5830 5829 5828 5827 5826 5824 5824 5822 5820 5819 5817 5816 5814 5813 5811 5809 5806 5804 5801 5799 5796 5793 5791 5789 5786 5783 5781 5779 5777
5819 5820 5821 5821 5822 5822 5822 5823 5823 5822 5822 5823 5823 5822 5821 5820 5819 5818 5817 5816 5815 5814 5812 5810 5808 5807 5806 5804 5803 5801 5798 5796 5793 5791 5788 5786 5783 5781 5778 5776 5773 5771 5769
5808 5809 5810 5810 5811 5812 5812 5812 5813 5813 5812 5812 5812 5812 5811 5810 5809 5807 5807 5807 5806 5805 5803 5802 5800 5798 5797 5795 5794 5791 5789 5787 5785 5782 5780 5777 5775 5773 5770 5768 5765 5763 5760
5797 5798 5799 5799 5800 5801 5801 5801 5802 5802 5802 5802 5801 5800 5800 5799 5798 5797 5797 5797 5796 5795 5794 5792 5791 5789 5788 5786 5784 5782 5780 5777 5775 5773 5771 5768 5766 5763 5761 5759 5756 5754 5751